Location: Home
(42.5358°N, 72.7383°W)
Time: 06:56:56
(UTC-05:00)

Courier 1B - Pass Details

Date: 09 December 2021
Orbit: 962 x 1209 km, 28.3° (Epoch: 25 January)

Event Time Altitude Azimuth Distance (km) Brightness Sun altitude
Rises 13:13:19 0° 215° (SW) 4,095 12.2 21.4°
Reaches altitude 10° 13:17:21 10° 196° (SSW) 3,137 12.3 21.1°
Maximum altitude 13:22:01 17° 159° (SSE) 2,634 10.6 20.7°
Drops below altitude 10° 13:26:38 10° 122° (ESE) 3,108 10.3 20.4°
Sets 13:30:35 0° 104° (ESE) 4,041 10.6 20.1°
